Pittsfield, MA

12:15 AM EDT on July 24, 2017 (GMT -0400)
Pittsfield Municipal

Weather History for KPSF - March, 2013

Change the Weather History Date:

Tuesday, March 5, 2013

  Actual Average Record
Temperature  
Mean Temperature 32 °F 28 °F  
Max Temperature 40 °F 38 °F 63 °F (1964)
Min Temperature 24 °F 19 °F -6 °F (1948)
Degree Days  
Heating Degree Days 33 37  
Month to date heating degree days 186 187  
Since 1 July heating degree days 5125 5567  
Cooling Degree Days 0 0  
Month to date cooling degree days 0 0  
Year to date cooling degree days 0 0  
Moisture  
Dew Point 21 °F    
Average Humidity 69    
Maximum Humidity 84    
Minimum Humidity 54    
Precipitation  
Precipitation 0.00 in 0.08 in 0.87 in (2008)
Month to date precipitation 0.02 0.41  
Year to date precipitation 3.65 6.01  
Sea Level Pressure  
Sea Level Pressure 29.97 in    
Wind  
Wind Speed 7 mph (NW)    
Max Wind Speed 18 mph    
Max Gust Speed 25 mph    
Visibility 10 miles    
Events      
T = Trace of Precipitation, MM = Missing Value Source: NWS Daily Summary

Daily Weather History Graph

Daily Weather History Graph

Search for Another Location

Airport or City:

Trip Planner

Search our weather history database for the weather conditions in past years. The results will help you decide how hot, cold, wet, or windy it might be!

Date:

Astronomy

Mar. 05, 2013 Rise Set
Actual Time 6:21 AM EST 5:48 PM EST
Civil Twilight 5:53 AM EST 6:16 PM EST
Nautical Twilight 5:21 AM EST 6:48 PM EST
Astronomical Twilight 4:48 AM EST 7:21 PM EST
Moon 1:36 AM EST (3/5) 11:19 AM EST (3/5)
Length of Visible Light 12h 22m
Length of Day
11h 26m
Last Quarter, 41% of the Moon is Illuminated
Mar 5
Last Quarter
Mar 11
New
Mar 19
First Quarter
Mar 27
Full
Apr 3
Last Quarter

Hourly Weather History & Observations

Time (EST) Temp. Windchill Dew Point Humidity Pressure Visibility Wind Dir Wind Speed Gust Speed Precip Events Conditions
12:15 AM 24.8 °F 16.1 °F 17.6 °F 74% 29.83 in 10.0 mi NW 8.1 mph 16.1 mph N/A   Overcast
12:54 AM 24.1 °F 17.0 °F 19.0 °F 81% 29.88 in 10.0 mi NW 5.8 mph - N/A   Overcast
2:54 AM 24.1 °F 11.0 °F 19.0 °F 81% 29.89 in 10.0 mi WNW 16.1 mph - N/A   Overcast
3:52 AM 24.8 °F 14.6 °F 19.4 °F 80% 29.86 in 10.0 mi NW 10.4 mph - N/A   Overcast
3:54 AM 25.0 °F 11.7 °F 19.0 °F 78% 29.91 in 10.0 mi NW 17.3 mph 24.2 mph N/A   Overcast
4:54 AM 25.0 °F 15.5 °F 19.0 °F 78% 29.94 in 10.0 mi NW 9.2 mph - N/A   Overcast
5:54 AM 25.0 °F 14.8 °F 19.0 °F 78% 29.96 in 10.0 mi NW 10.4 mph 18.4 mph N/A   Overcast
6:26 AM 24.8 °F 15.3 °F 17.6 °F 74% 29.93 in 10.0 mi NNW 9.2 mph - N/A   Overcast
6:34 AM 24.8 °F 15.3 °F 17.6 °F 74% 29.93 in 10.0 mi NW 9.2 mph - N/A   Overcast
6:54 AM 25.0 °F 16.3 °F 18.0 °F 75% 29.99 in 10.0 mi NW 8.1 mph - N/A   Overcast
8:54 AM 27.0 °F 19.5 °F 19.0 °F 72% 30.01 in 10.0 mi NW 6.9 mph - N/A   Overcast
9:54 AM 30.0 °F 22.4 °F 19.9 °F 66% 30.00 in 10.0 mi NW 8.1 mph - N/A   Scattered Clouds
10:54 AM 30.9 °F 22.2 °F 21.0 °F 67% 29.99 in 10.0 mi NW 10.4 mph - N/A   Partly Cloudy
11:54 AM 34.0 °F 28.0 °F 23.0 °F 64% 29.99 in 10.0 mi Variable 6.9 mph - N/A   Scattered Clouds
12:32 PM 35.6 °F 29.2 °F 23.0 °F 60% 29.94 in 10.0 mi WNW 8.1 mph - N/A   Mostly Cloudy
12:49 PM 35.6 °F 29.9 °F 23.0 °F 60% 29.93 in 10.0 mi NW 6.9 mph - N/A   Scattered Clouds
12:54 PM 36.0 °F 28.0 °F 23.0 °F 59% 29.97 in 10.0 mi NW 11.5 mph - N/A   Partly Cloudy
1:54 PM 37.0 °F 31.6 °F 23.0 °F 57% 29.97 in 10.0 mi NW 6.9 mph - N/A   Clear
2:54 PM 37.9 °F 32.1 °F 23.0 °F 55% 29.98 in 10.0 mi NNW 8.1 mph - N/A   Clear
3:54 PM 39.0 °F 33.4 °F 24.1 °F 55% 29.99 in 10.0 mi NNW 8.1 mph - N/A   Mostly Cloudy
4:54 PM 37.0 °F 31.0 °F 24.1 °F 59% 30.00 in 10.0 mi NNE 8.1 mph - N/A   Overcast
5:54 PM 35.1 °F - 24.1 °F 64% 30.01 in 10.0 mi Calm Calm - N/A   Overcast
6:54 PM 34.0 °F - 24.1 °F 67% 30.02 in 10.0 mi Calm Calm - N/A   Overcast
7:54 PM 32.0 °F - 24.1 °F 73% 30.02 in 10.0 mi Calm Calm - N/A   Clear
8:54 PM 28.0 °F - 23.0 °F 81% 30.03 in 10.0 mi Calm Calm - N/A   Clear
9:54 PM 28.0 °F - 23.0 °F 81% 30.06 in 10.0 mi Calm Calm - N/A   Clear
10:54 PM 26.1 °F - 23.0 °F 88% 30.03 in 10.0 mi Calm Calm - N/A   Clear
11:54 PM 27.0 °F - 23.0 °F 85% 30.01 in 10.0 mi Calm Calm - N/A   Partly Cloudy